Location: Goll?ig?dem
(16.6773°N, 80.7332°E)
Time: 04:34:11
(UTC+00:00)

Cosmos 1943 - Pass Details

Date: 19 May 2025
Orbit: 830 x 849 km, 71.0° (Epoch: 13 June)

Event Time Altitude Azimuth Distance (km) Brightness Sun altitude
Rises 23:39:00 0° 346° (NNW) 3,405 6.5 -6.6°
Reaches altitude 10° 23:41:27 10° 348° (NNW) 2,469 5.8 -6.0°
Maximum altitude 23:47:07 75° 74° (ENE) 878 3.5 -4.8°
Drops below altitude 10° 23:52:46 10° 159° (SSE) 2,463 5.6 -3.5°
Sets 23:55:13 0° 160° (SSE) 3,395 6.3 -3.0°
